Miscellaneous Local Product
Issued by NWS North Platte, NE

Home | Current Version | Previous Version | Text Only | Print | Product List | Glossary On
Versions: 1 2 3 4 5 6 7 8 9 10 11 12 13 14 15 16 17 18 19 20 21 22 23 24 25 26 27 28 29 30 31 32 33 34 35 36 37 38 39 40 41 42 43 44 45 46 47 48 49 50
000
AXUS43 KLBF 041510
MISLBF


WESTERN AND NORTH CENTRAL NEBRASKA HOURLY WEATHER ROUNDUP
NATIONAL WEATHER SERVICE NORTH PLATTE NE
900 AM CST WED MAR 04 2015

***STATIONS NOT REPORTING VARIABLES SUCH AS SKY/WEATHER OR
PRESSURE ARE PROVIDED BY THE NEBRASKA DEPARTMENT OF
ROADS...RAWS...AND APRS NETWORKS...AND ARE NOT UNDER
NATIONAL WEATHER SERVICE QUALITY CONTROL***

...OBSERVATIONS IN AND NEAR THE EASTERN PANHANDLE OF NEBRASKA...

CITY           SKY/WX    TMP DP  RH WIND       PRES   REMARKS
PINE RIDGE     SUNNY      0  -7  72 NE7       30.20R WCI -13
CHADRON        SUNNY      5  -4  66 W12       30.21R WCI -11
ALLIANCE       SUNNY     10   1  67 W12       30.16R WCI  -5
SIDNEY         CLOUDY    11   3  70 W9        30.16R WCI  -2
WHITECLAY        N/A      6  -5  61 CALM        N/A
CRESCENT LAKE    N/A     12   1  62 SW6         N/A  WCI   3
LISCO            N/A     17   6  63 W6          N/A  WCI   8
BIG SPRINGS      N/A     13   7  78 W6          N/A  WCI   4
LEWELLEN         N/A     10   0  65 W12         N/A  WCI  -5
$$

...OBSERVATIONS IN NORTH CENTRAL NEBRASKA...

CITY           SKY/WX    TMP DP  RH WIND       PRES   REMARKS
VALENTINE      SUNNY     10   1  67 NW7       30.24R WCI  -1
THEDFORD       SUNNY     15   6  67 NW13      30.22R WCI   1
AINSWORTH      SUNNY     13   1  59 NW14      30.23R WCI  -2
O`NEILL        SUNNY     16   3  56 NW21G28   30.26R WCI  -2
ORD            SUNNY     20   6  55 W9        30.25R WCI   9
BROKEN BOW     MOSUNNY   17   8  67 W9        30.23R WCI   6
BROWNLEE         N/A     10  -1  60 NW15        N/A  WCI  -6
SPRINGVIEW       N/A     12   1  62 NW14G22     N/A  WCI  -3
BREWSTER         N/A     20   9  62 NW10        N/A  WCI   9
ROSE             N/A     23  12  62 SW10        N/A  WCI  12
NEWPORT          N/A     21   9  57 NW17        N/A  WCI   7
SARGENT          N/A     17   9  70 W7G14       N/A  WCI   8
COMSTOCK         N/A     22  14  71 W8          N/A  WCI  13
CHAMBERS         N/A     18   1  46 N12G20      N/A  WCI   6
EWING            N/A     18   6  58 NW12G18     N/A  WCI   6
$$

...OBSERVATIONS IN SOUTHWEST NEBRASKA AND FAR NORTHEAST COLORADO...

CITY           SKY/WX    TMP DP  RH WIND       PRES   REMARKS
WRAY           FAIR      15  11  84 NW6       30.22R WCI   6
IMPERIAL         N/A     13   4  67 NW6       30.23R WCI   4
OGALLALA       CLOUDY    11   5  76 W6        30.22R WCI   2
NORTH PLATTE   SUNNY     15  10  80 W9        30.24R WCI   3
MCCOOK         PTSUNNY   19  12  74 NW6       30.27R WCI  11
LEXINGTON      MOSUNNY   12   8  83 NW9       30.26R WCI  -1
PAXTON           N/A     13  10  86 W3          N/A
BRADY            N/A     12   8  83 CALM        N/A
GOTHENBURG       N/A     15   9  76 W3          N/A
CALLAWAY         N/A     15   9  75 NW12        N/A  WCI   2
$$

...NORTH PLATTE AREA...

CITY           SKY/WX    TMP DP  RH WIND       PRES   REMARKS
AIRPORT        SUNNY     15  10  80 W9        30.24R WCI   3
DOWNTOWN         N/A     15   8  73 CALM        N/A
$$

...SOME WEATHER OBSERVATIONS FROM AROUND THE REGION...

CITY           SKY/WX    TMP DP  RH WIND       PRES   REMARKS
DENVER         LGT SNOW  10   7  87 E5        30.13R FOG     WCI   2
LARAMIE        MOSUNNY   -2  -5  87 W3        29.96R
CHEYENNE       MOSUNNY    7  -3  64 W7        30.04R WCI  -5
SCOTTSBLUFF    MOSUNNY   11   4  73 W7        30.18R WCI   0
RAPID CITY     SUNNY     10   1  67 N18       30.18R WCI  -8
PIERRE         SUNNY      7  -4  60 NW18      30.27R WCI -12
WINNER         FAIR       8  -5  55 NW14      30.26R WCI  -8
SIOUX FALLS    MOSUNNY    8   0  69 W14       30.20R WCI  -8
OMAHA          MOSUNNY   21   7  54 NW5       30.31R WCI  15
GRAND ISLAND   MOSUNNY   18   9  68 NW9       30.28R WCI   7
KANSAS CITY    PTSUNNY   21   8  57 N14G21    30.29R WCI   8
WICHITA        LGT SNOW  20  15  81 N16       30.27R VSB 1   WCI   6
HAYS           CLOUDY    19   9  63 N13       30.30R WCI   7
LIBERAL        CLOUDY    19  12  73 N16       30.20R WCI   5
GOODLAND       CLOUDY    17  13  84 N9        30.22R WCI   6
$$



USA.gov is the U.S. government's official web portal to all federal, state and local government web resources and services.